Location: ???????
(54.6339°N, 39.4245°E)
Time: 04:40:54
(UTC+00:00)

ADEOS II - Pass Details

Date: 19 May 2025
Orbit: 793 x 796 km, 98.7° (Epoch: 19 June)

Event Time Altitude Azimuth Distance (km) Brightness Sun altitude
Rises 23:38:21 0° 19° (NNE) 3,311 7.1 -9.6°
Reaches altitude 10° 23:40:48 10° 26° (NNE) 2,376 6.2 -9.4°
Maximum altitude 23:45:49 44° 99° (E) 1,088 3.0 -9.0°
Drops below altitude 10° 23:50:48 10° 171° (S) 2,359 4.1 -8.6°
Enters shadow 23:52:35 - 176° (S) 3,037 4.6 -8.5°
